CHIPSAT

导读

CHIPSAT是美国于北京时间2003年1月13日8时发射的芯片级微型卫星,属于超小型卫星技术探索范畴。这类卫星将传感器与芯片集成,可开展空间环境监测等轻量化任务,在农业环境探测等领域具备应用潜力,推动了低成本微型卫星技术的发展,为小卫星规模化应用提供了技术实践基础。

基本信息
目录编号:
27643
目录名称:
CHIPSAT
国际标识:
2003-002B
轨道中心:
EARTH
卫星名称:
CHIPSAT
卫星全名:
--
卫星状态:
在轨 (已飞行8636 天)
发射日期:
2003-01-13 UTC
国别 :
美国 (US)
星等 :
--
轨道信息
数据来源 国际轨道数据
星历时间: 2026-09-05T11:15:35+0800
15小时前
查看轨道信息
半长轴: 6791.802km
偏心率: 0.0005936
轨道倾角: 94.033°
近地点辐角 176.535°
升交点赤经 27.420°
平近点角 183.596°
近地点: 409.633km
远地点: 417.697km
周期: 92.840分钟
每日圈数: 15.510482
详细信息
使用方式:
暂无
2D轨道图
3D轨道图
轨道高度分析图
轨道倾角分析图
轨道综合分析图
查看轨道综合分析图
交会数据列表
事件ID 空间交会对象 最接近时刻(TCA) 交会距离 交会风险概率(CRP) 交会风险指数(CRI) 操作
CDM_260908-021502-764306-489422
CHIPSAT (27643)
OBJECT U (64894)
2026-09-08T
02:15:05+0000
1.985 km
极远距离
2.950513E-6 低风险 0.44
CDM_260906-054602-764306-802822
CHIPSAT (27643)
2026-09-06T
05:46:34+0000
2.956 km
极远距离
1.383461E-6 低风险 0.38